Regional Weather Roundup
Issued by NWS

Home | Current Version | Previous Version | Graphics & Text | Print | Product List | Glossary On
Versions: 1 2 3 4 5 6 7 8 9 10 11 12 13 14 15 16 17 18 19 20 21 22 23 24 25 26 27 28 29 30 31 32 33 34 35 36 37 38 39 40 41 42 43 44 45 46 47 48 49 50
989
ASUS43 KMKX 050111
RWRWI

WISCONSIN REGIONAL WEATHER ROUNDUP
NATIONAL WEATHER SERVICE MILWAUKEE/SULLIVAN WI
800 PM CDT WED MAY 04 2016

NOTE: "FAIR" INDICATES FEW OR NO CLOUDS BELOW 12,000 FEET WITH NO
SIGNIFICANT WEATHER AND/OR OBSTRUCTIONS TO VISIBILITY.

WIZ001-002-006>008-014>016-023>028-050200-
NORTHWEST WISCONSIN

CITY           SKY/WX    TMP DP  RH WIND       PRES   REMARKS
SUPERIOR ARPT  CLEAR     46  29  52 NE6       29.99S
ASHLAND        CLEAR     44  36  73 N7        30.00R
HAYWARD        CLEAR     53  26  35 NE3       29.97R
SIREN          CLEAR     59  18  20 NE8       29.95S
CUMBERLAND     CLEAR     54  19  26 NE8       29.96R
RICE LAKE      CLEAR     57  19  22 N10       29.97R
CHETEK         CLEAR     57  26  31 NE6       29.95R
LADYSMITH      CLEAR     52  25  35 N9        29.98R
EAU CLAIRE     CLEAR     56  21  25 NE9       29.94R
MENOMONIE      CLEAR     59  18  20 N8G17     29.94R
NEW RICHMOND   CLEAR     59  19  21 N8        29.95S
OSCEOLA        CLEAR     61  20  20 N7        29.97S
$$

WIZ003>005-009-010-017-018-050200-
NORTH CENTRAL WISCONSIN

CITY           SKY/WX    TMP DP  RH WIND       PRES   REMARKS
MANITOWISH WTR CLEAR     46  31  58 N7        29.97S
ARBOR VITAE    CLEAR     46  31  57 NE9       29.96S
WOODRUFF       CLEAR     46  31  57 NE9       29.96S
RHINELANDER    CLEAR     46  30  53 N8G18     29.96R
EAGLE RIVER    CLEAR     43  29  58 N7        29.96R
LAND O LAKES   CLEAR     43  31  62 N7        29.97R
PHILLIPS       CLEAR     48  31  50 N9        29.96S
TOMAHAWK       CLEAR     46  31  54 N6        29.96R
MEDFORD        CLEAR     48  31  52 N13       29.94R
MERRILL        CLEAR     47  32  55 N12       29.95S
$$

WIZ029-030-035-036-043>047-050200-
CENTRAL WISCONSIN

CITY           SKY/WX    TMP DP  RH WIND       PRES   REMARKS
WAUSAU         CLEAR     51  31  46 VRB6      29.92R
MOSINEE        CLEAR     48  30  49 N13G18    29.94R
MARSHFIELD     CLEAR     52  30  43 N12G18    29.92R
STEVENS POINT  CLEAR     48  30  50 N10       29.93R
WAUPACA        MOCLDY    54  32  43 NW12      29.91R
WAUTOMA        NOT AVBL
WISC RAPIDS    CLEAR     52  29  41 NE17G23   29.94R
CAMP DOUGLAS   PTCLDY    55  30  38 N12       29.91R
$$

WIZ011>013-019>022-031-037>040-048>050-050200-
NORTHEAST WISCONSIN

CITY           SKY/WX    TMP DP  RH WIND       PRES   REMARKS
ANTIGO         CLEAR     43  33  66 N14G21    29.94R
SHAWANO        CLEAR     50  33  53 N15G21    29.92R
OCONTO         CLOUDY    44  33  64 N13G20    29.93R
STURGEON BAY   CLEAR     43  30  61 N17G25    29.94R
GREEN BAY      MOCLDY    47  34  60 N16       29.91R
MANITOWOC      PTCLDY    45  35  68 VRB7G22   29.90R
APPLETON       PTCLDY    48  32  53 NE16      29.89R
CLINTONVILLE   CLEAR     50  32  50 N8G16     29.92R
OSHKOSH        PTCLDY    49  35  58 N14       29.89R
$$

WIZ032>034-041-042-053>061-050200-
SOUTHWEST WISCONSIN

CITY           SKY/WX    TMP DP  RH WIND       PRES   REMARKS
LA CROSSE      CLEAR     59  25  27 N9        29.90R
SPARTA         CLEAR     57  21  24 N13       29.92R
VIROQUA        CLEAR     55  20  25 N13       29.90R
BOSCOBEL       CLEAR     60  20  21 VRB5      29.88R
PRAIRIE DU CHI CLEAR     60  20  20 N9G17     29.89R
PLATTEVILLE    CLEAR     57  28  33 N10G16    29.86S
$$

WIZ056-057-062-063-064-067-068-050200-
SOUTH CENTRAL WISCONSIN

CITY           SKY/WX    TMP DP  RH WIND       PRES   REMARKS
REEDSBURG      CLEAR     55  30  37 N13       29.89R
BARABOO/DELLS  PTCLDY    54  30  39 N13G20    29.89R
LONE ROCK      CLEAR     58  22  24 N12G23    29.88R
MINERAL POINT  CLEAR     55  21  26 N10       29.87R
MADISON        PTCLDY    52  34  50 NE16      29.87R
MIDDLETON      PTCLDY    55  35  46 NE14      29.87R
WATERTOWN      CLEAR     50  37  60 NE9       29.86R
MONROE         PTCLDY    55  27  33 N12G21    29.84R
JANESVILLE     PTCLDY    55  34  44 NE15      29.84R
$$

WIZ051-052-058>065-066-070>072-050200-
SOUTHEAST WISCONSIN

CITY           SKY/WX    TMP DP  RH WIND       PRES   REMARKS
MILWAUKEE      MOCLDY    41  35  79 N14G24    29.87R
WAUKESHA       MOCLDY    43  36  75 NE7       29.87R
MILWAUKEE/TIMM MOCLDY    43  34  70 NE10      29.88R
RACINE         CLOUDY    42  34  73 N16       29.88R
BURLINGTON     PTCLDY    43  34  71 NE10      29.86R
KENOSHA        MOCLDY    43  34  70 NE12      29.87R
FOND DU LAC    PTCLDY    48  36  63 NE13      29.89R
SHEBOYGAN      CLOUDY    42  35  76 NE12      29.89R
WEST BEND      MOCLDY    43  36  75 NE6       29.88R
JUNEAU         CLOUDY    49  37  62 N13       29.88R
$$

LSZ147-162-050200-
LAKE SUPERIOR

STATION/POSITION TIME  TEMP    WIND        PRES    WAVE
                       AIR SEA DIR/SP/G            HT/PER
                 (UTC) (F)     (DEG/KT/KT) (MB)    (FT/S)
W MID LAKE BUOY  0050   41 37     CALM     1016.8R   1/ 5
DEVILS ISLAND    0000   44     130/  6/  7 1016.2R
SAXON HARBOR     0000   46      CALM  /  5 1015.6
$$

LMZ867-665-643>646-050200-
LAKE MICHIGAN

STATION/POSITION TIME  TEMP    WIND        PRES    WAVE
                       AIR SEA DIR/SP/G            HT/PER
                 (UTC) (F)     (DEG/KT/KT) (MB)    (FT/S)
CHAMBERS ISLAND  0000   44     340/ 15/ 20 1013.2R
N MID LAKE BUOY  0050   40 38  330/ 17/ 19 1012.4R   4/ 5
NORTHPORT PIER   0020   41     340/ 21/ 25 1012.9R
ALGOMA LAKESHORE 0045           20/ 17/ 22   N/A
KEWAUNEE LAKESHO 0000   46                 1011.2R
SHEBOYGAN LAKESH 0100   41      30/ 21/ 25 1012.7R
PORT WASHINGTON  0000   45      30/ 11/ 17 1012.5R
S MID LAKE BUOY  0050   42 40   20/ 25/ 31 1009.3R  10/ 8
KENOSHA   LAKESH 0100   43      10/ 21/ 26 1011.2R
$$

TC  - TEMPERATURE IN CELSIUS
VSB - VISIBILITY IN STATUTE MILES
WCI - WIND CHILL INDEX
HX  - HEAT INDEX





USA.gov is the U.S. government's official web portal to all federal, state and local government web resources and services.